Home > Weather > Mühlacker > Past weeks

Flag for Germany Past Weather in Mühlacker, Baden-Württemberg, Germany — Yesterday and Last 2 Weeks

Now
63 °F

Passing clouds.


Feels Like: 63 °F
Forecast: 55 / 69 °F
Wind: 7 mph from Northwest

Location: Stuttgart-Echterdingen

Current Time: Jun 25, 2016 at 11:31:50 PM

Latest Report: Jun 25, 2016 at 10:50 PM


Visibility: N/A

Pressure: 30.07 "Hg

Humidity: 83%

Dew Point: 57 °F

Location of MühlackerLocation

Past Weather in Mühlacker — Graph

°F

Mühlacker Temperature Yesterday

Maximum temperature yesterday: 91 °F (at 3:50 PM)
Minimum temperature yesterday: 64 °F (at 5:20 AM)
Average temperature yesterday: 78 °F

High & Low Weather Summary for the Past Weeks

 TemperatureHumidityPressure
High91 °F (Jun 23, 4:50 PM)100% (Jun 11, 7:50 PM)30.27 "Hg (Jun 11, 7:50 PM)
Low48 °F (Jun 20, 4:20 AM)30% (Jun 23, 5:20 PM)29.56 "Hg (Jun 14, 12:50 PM)
Average63 °F79%29.94 "Hg
* Reported Jun 10 10:20 PM — Jun 25 10:20 PM, Mühlacker, Weather by CustomWeather, © 2016

Note: Actual official high and low records may vary slightly from our data, if they occured in-between our weather recording intervals... More about our weather records

Advertising

Mühlacker Weather History for the Previous 24 Hours

Scroll right to see more
 ConditionsComfort  
Time TempWeatherWind HumidityBarometerVisibility
10:20 PM
Sat, Jun 25
63 °FBroken clouds.7 mph83%30.07 "HgN/A
9:50 PM63 °FScattered clouds.9 mph88%30.04 "HgN/A
9:20 PM64 °FScattered clouds.9 mph78%30.04 "HgN/A
8:50 PM66 °FBroken clouds.13 mph73%30.01 "HgN/A
8:20 PM66 °FBroken clouds.10 mph73%30.01 "HgN/A
7:50 PM66 °FBroken clouds.15 mph73%30.01 "HgN/A
7:20 PM66 °FBroken clouds.12 mph78%30.01 "HgN/A
6:50 PM66 °FBroken clouds.15 mph78%29.98 "HgN/A
6:20 PM68 °FPartly sunny.12 mph73%29.98 "HgN/A
5:50 PM66 °FSprinkles. Broken clouds.8 mph83%29.98 "HgN/A
5:20 PM66 °FThundershowers. Partly sunny.17 mph83%29.95 "HgN/A
4:50 PM72 °FScattered showers. Scattered clouds.24 mph69%29.92 "HgN/A
4:20 PM77 °FScattered clouds.5 mph61%29.92 "HgN/A
3:50 PM77 °FBroken clouds.5 mph65%29.92 "HgN/A
3:20 PM75 °FScattered clouds.8 mph74%29.92 "HgN/A
2:50 PM73 °FThundershowers. Partly sunny.8 mph74%29.92 "HgN/A
2:20 PM75 °FScattered clouds.3 mph65%29.92 "HgN/A
1:50 PM73 °FBroken clouds.7 mph78%29.92 "HgN/A
1:20 PM73 °FBroken clouds.6 mph78%29.95 "HgN/A
12:50 PM72 °FLight rain. Partly sunny.3 mph83%29.95 "HgN/A
12:20 PM72 °FBroken clouds.2 mph78%29.95 "HgN/A
11:50 AM72 °FBroken clouds.5 mph78%29.95 "HgN/A
11:20 AM70 °FBroken clouds.3 mph83%29.95 "HgN/A
10:50 AM70 °FBroken clouds.2 mph83%29.98 "HgN/A
10:20 AM70 °FBroken clouds.5 mph83%29.98 "HgN/A
9:50 AM68 °FBroken clouds.2 mph83%29.98 "HgN/A
9:20 AM68 °FBroken clouds.3 mph88%29.98 "HgN/A
8:50 AM66 °FBroken clouds.3 mph88%29.98 "HgN/A
8:20 AM64 °FBroken clouds.1 mph94%29.95 "HgN/A
7:50 AM64 °FScattered showers. Broken clouds.No wind94%29.95 "HgN/A
7:20 AM64 °FLight rain. Partly sunny.6 mph94%29.95 "HgN/A
6:50 AM64 °FLight rain. Partly sunny.1 mph88%29.95 "HgN/A
6:20 AM64 °FPassing clouds.6 mph94%29.95 "HgN/A
5:50 AM63 °FLight rain. Passing clouds.6 mph100%29.95 "HgN/A
5:20 AM64 °FLight rain. Passing clouds.3 mph88%29.95 "HgN/A
4:50 AM64 °FLight rain. Passing clouds.7 mph88%29.95 "HgN/A
4:20 AM63 °FLight rain. Passing clouds.8 mph94%29.98 "HgN/A
3:50 AM64 °FLight rain. Passing clouds.7 mph88%29.98 "HgN/A
3:20 AM64 °FLight rain. Passing clouds.10 mph88%29.98 "HgN/A
2:50 AM64 °FLight rain. Passing clouds.9 mph94%29.98 "HgN/A
2:20 AM64 °FLight rain. Passing clouds.2 mph88%30.01 "HgN/A
1:50 AM64 °FSprinkles. Partly cloudy.6 mph88%30.04 "HgN/A
1:20 AM63 °FRain showers. Partly cloudy.17 mph94%30.04 "HgN/A
12:50 AM64 °FThunderstorms. Partly cloudy.23 mph88%30.07 "Hg6 mi
12:20 AM66 °FThunderstorms. Partly cloudy.16 mph83%30.07 "Hg6 mi
11:50 PM
Fri, Jun 24
68 °FThunderstorms. Passing clouds.17 mph88%30.07 "HgN/A
11:20 PM73 °FThunderstorms. Partly cloudy.2 mph83%30.01 "HgN/A
Weather by CustomWeather, © 2016

See weather overviewHow to use our weather pages